| time (UTC) | temp F | wind direction | speed MPH | gust MPH | rain 1hr in | rain 24hr in | rain mn in | humidity % | barometer mb |
| 20260507165559 | 62 | 254 | 8.0 | 20.0 | 0.00 | 0.00 | 0.00 | 59 | 1015.2 |
| 20260507165058 | 62 | 241 | 9.0 | 20.0 | 0.00 | 0.00 | 0.00 | 60 | 1015.3 |
| 20260507164558 | 62 | 234 | 11.0 | 17.0 | 0.00 | 0.00 | 0.00 | 60 | 1015.4 |
| 20260507164057 | 62 | 268 | 11.0 | 19.0 | 0.00 | 0.00 | 0.00 | 60 | 1015.5 |
| 20260507163557 | 62 | 179 | 10.0 | 19.0 | 0.00 | 0.00 | 0.00 | 60 | 1015.6 |
| 20260507163056 | 61 | 241 | 12.0 | 19.0 | 0.00 | 0.00 | 0.00 | 60 | 1015.6 |
| 20260507162556 | 61 | 267 | 8.0 | 19.0 | 0.00 | 0.00 | 0.00 | 62 | 1015.7 |
| 20260507162034 | 61 | 213 | 8.0 | 18.0 | 0.00 | 0.00 | 0.00 | 62 | 1015.6 |
| 20260507161534 | 61 | 193 | 8.0 | 18.0 | 0.00 | 0.00 | 0.00 | 63 | 1015.7 |
| 20260507161012 | 60 | 168 | 9.0 | 17.0 | 0.00 | 0.00 | 0.00 | 63 | 1015.8 |
| 20260507160512 | 60 | 212 | 9.0 | 17.0 | 0.00 | 0.00 | 0.00 | 63 | 1015.6 |
| 20260507160011 | 60 | 233 | 12.0 | 18.0 | 0.00 | 0.00 | 0.00 | 62 | 1015.8 |
| 20260507155510 | 60 | 221 | 10.0 | 18.0 | 0.00 | 0.00 | 0.00 | 64 | 1015.8 |
| 20260507154949 | 59 | 255 | 8.0 | 16.0 | 0.00 | 0.00 | 0.00 | 64 | 1015.8 |
| 20260507154449 | 59 | 229 | 7.0 | 16.0 | 0.00 | 0.00 | 0.00 | 66 | 1015.9 |
| 20260507153948 | 59 | 246 | 9.0 | 17.0 | 0.00 | 0.00 | 0.00 | 67 | 1016.1 |
| 20260507153427 | 59 | 248 | 11.0 | 15.0 | 0.00 | 0.00 | 0.00 | 66 | 1015.9 |
| 20260507152926 | 58 | 236 | 8.0 | 16.0 | 0.00 | 0.00 | 0.00 | 66 | 1016.1 |
| 20260507152426 | 58 | 227 | 8.0 | 16.0 | 0.00 | 0.00 | 0.00 | 66 | 1016.1 |
| 20260507151925 | 58 | 221 | 7.0 | 18.0 | 0.00 | 0.00 | 0.00 | 67 | 1016.2 |
| 20260507151403 | 57 | 235 | 8.0 | 21.0 | 0.00 | 0.00 | 0.00 | 67 | 1016.2 |
| 20260507150842 | 57 | 254 | 11.0 | 17.0 | 0.00 | 0.00 | 0.00 | 68 | 1016.3 |
| 20260507150320 | 57 | 180 | 7.0 | 11.0 | 0.00 | 0.00 | 0.00 | 69 | 1016.4 |
| 20260507145759 | 57 | 267 | 0.0 | 2.0 | 0.00 | 0.00 | 0.00 | 69 | 1016.5 |
| 20260507145259 | 56 | 246 | 0.0 | 1.0 | 0.00 | 0.00 | 0.00 | 71 | 1016.5 |
| 20260507144737 | 56 | 242 | 0.0 | 1.0 | 0.00 | 0.00 | 0.00 | 72 | 1016.5 |
| 20260507144215 | 56 | 219 | 0.0 | 1.0 | 0.00 | 0.00 | 0.00 | 72 | 1016.5 |
| 20260507143715 | 55 | 187 | 0.0 | 8.0 | 0.00 | 0.00 | 0.00 | 73 | 1016.5 |
| 20260507143214 | 55 | 254 | 0.0 | 15.0 | 0.00 | 0.00 | 0.00 | 74 | 1016.6 |
| 20260507142714 | 55 | 216 | 6.0 | 15.0 | 0.00 | 0.00 | 0.00 | 75 | 1016.7 |
| 20260507142213 | 54 | 224 | 7.0 | 11.0 | 0.00 | 0.00 | 0.00 | 75 | 1016.6 |
| 20260507141652 | 54 | 245 | 6.0 | 11.0 | 0.00 | 0.00 | 0.00 | 75 | 1016.4 |
| 20260507141151 | 53 | 249 | 8.0 | 12.0 | 0.00 | 0.00 | 0.00 | 76 | 1016.5 |
| 20260507140650 | 53 | 215 | 6.0 | 12.0 | 0.00 | 0.00 | 0.00 | 77 | 1016.6 |
| 20260507140150 | 53 | 189 | 4.0 | 12.0 | 0.00 | 0.00 | 0.00 | 78 | 1016.7 |
| 20260507135629 | 52 | 188 | 6.0 | 15.0 | 0.00 | 0.00 | 0.00 | 77 | 1016.7 |
| 20260507135128 | 52 | 224 | 7.0 | 15.0 | 0.00 | 0.00 | 0.00 | 78 | 1016.6 |
| 20260507134628 | 52 | 209 | 8.0 | 12.0 | 0.00 | 0.00 | 0.00 | 78 | 1016.6 |
| 20260507134106 | 51 | 246 | 6.0 | 12.0 | 0.00 | 0.00 | 0.00 | 79 | 1016.6 |
| 20260507133606 | 51 | 213 | 5.0 | 10.0 | 0.00 | 0.00 | 0.00 | 80 | 1016.5 |
| 20260507133106 | 51 | 232 | 5.0 | 8.0 | 0.00 | 0.00 | 0.00 | 81 | 1016.5 |
| 20260507132605 | 50 | 213 | 5.0 | 8.0 | 0.00 | 0.00 | 0.00 | 82 | 1016.5 |
| 20260507132105 | 50 | 228 | 3.0 | 10.0 | 0.00 | 0.00 | 0.00 | 83 | 1016.6 |
| 20260507131604 | 49 | 198 | 5.0 | 10.0 | 0.00 | 0.00 | 0.00 | 84 | 1016.7 |
| 20260507131103 | 49 | 240 | 4.0 | 10.0 | 0.00 | 0.00 | 0.00 | 85 | 1016.7 |
| 20260507130603 | 48 | 169 | 4.0 | 7.0 | 0.00 | 0.00 | 0.00 | 86 | 1016.6 |
| 20260507130042 | 47 | 219 | 5.0 | 8.0 | 0.00 | 0.00 | 0.00 | 87 | 1016.6 |
| 20260507125541 | 47 | 204 | 3.0 | 7.0 | 0.00 | 0.00 | 0.00 | 87 | 1016.9 |
| 20260507125041 | 46 | 217 | 3.0 | 7.0 | 0.00 | 0.00 | 0.00 | 88 | 1016.8 |
| 20260507124541 | 46 | 216 | 3.0 | 7.0 | 0.00 | 0.00 | 0.00 | 88 | 1016.9 |
| 20260507124040 | 45 | 225 | 2.0 | 5.0 | 0.00 | 0.00 | 0.00 | 88 | 1016.8 |
| 20260507123540 | 45 | 204 | 4.0 | 5.0 | 0.00 | 0.00 | 0.00 | 88 | 1016.9 |
| 20260507123039 | 44 | 194 | 2.0 | 5.0 | 0.00 | 0.00 | 0.00 | 88 | 1016.9 |
| 20260507122539 | 44 | 186 | 2.0 | 5.0 | 0.00 | 0.00 | 0.00 | 87 | 1016.8 |
| 20260507122038 | 43 | 182 | 3.0 | 5.0 | 0.00 | 0.00 | 0.00 | 87 | 1016.9 |
| 20260507121517 | 43 | 202 | 4.0 | 5.0 | 0.00 | 0.00 | 0.00 | 87 | 1016.9 |
| 20260507120955 | 43 | 207 | 0.0 | 4.0 | 0.00 | 0.00 | 0.00 | 86 | 1016.9 |
| 20260507120455 | 43 | 207 | 0.0 | 2.0 | 0.00 | 0.00 | 0.00 | 86 | 1016.8 |
| 20260507115955 | 42 | 207 | 0.0 | 2.0 | 0.00 | 0.00 | 0.00 | 86 | 1016.7 |
| 20260507115454 | 42 | 207 | 0.0 | 0.0 | 0.00 | 0.00 | 0.00 | 85 | 1016.7 |
| 20260507114954 | 42 | 207 | 0.0 | 0.0 | 0.00 | 0.00 | 0.00 | 85 | 1016.7 |
| 20260507114453 | 43 | 207 | 0.0 | 0.0 | 0.00 | 0.00 | 0.00 | 85 | 1016.7 |
| 20260507113952 | 43 | 207 | 0.0 | 0.0 | 0.00 | 0.00 | 0.00 | 85 | 1016.7 |
| 20260507113452 | 43 | 207 | 0.0 | 0.0 | 0.00 | 0.00 | 0.00 | 84 | 1016.8 |
| 20260507112951 | 43 | 207 | 0.0 | 0.0 | 0.00 | 0.00 | 0.00 | 84 | 1016.8 |
| 20260507112451 | 43 | 207 | 0.0 | 0.0 | 0.00 | 0.00 | 0.00 | 84 | 1016.7 |
| 20260507111950 | 43 | 207 | 0.0 | 0.0 | 0.00 | 0.00 | 0.00 | 84 | 1016.7 |
| 20260507111450 | 43 | 207 | 0.0 | 0.0 | 0.00 | 0.00 | 0.00 | 84 | 1016.7 |
| 20260507110949 | 43 | 207 | 0.0 | 3.0 | 0.00 | 0.00 | 0.00 | 84 | 1016.8 |
| 20260507110449 | 43 | 207 | 0.0 | 3.0 | 0.00 | 0.00 | 0.00 | 84 | 1016.7 |
| 20260507105948 | 43 | 207 | 0.0 | 0.0 | 0.00 | 0.00 | 0.00 | 83 | 1016.6 |
| 20260507105448 | 43 | 207 | 0.0 | 1.0 | 0.00 | 0.00 | 0.00 | 84 | 1016.6 |
| 20260507104926 | 43 | 207 | 0.0 | 2.0 | 0.00 | 0.00 | 0.00 | 83 | 1016.5 |
| 20260507104405 | 43 | 207 | 1.0 | 3.0 | 0.00 | 0.00 | 0.00 | 83 | 1016.7 |
| 20260507103843 | 43 | 208 | 1.0 | 3.0 | 0.00 | 0.00 | 0.00 | 83 | 1016.5 |
| 20260507103343 | 44 | 218 | 0.0 | 0.0 | 0.00 | 0.00 | 0.00 | 83 | 1016.6 |
| 20260507102821 | 44 | 218 | 0.0 | 0.0 | 0.00 | 0.00 | 0.00 | 83 | 1016.7 |
| 20260507102321 | 43 | 218 | 0.0 | 0.0 | 0.00 | 0.00 | 0.00 | 83 | 1016.6 |
| 20260507101821 | 43 | 218 | 0.0 | 2.0 | 0.00 | 0.00 | 0.00 | 82 | 1016.6 |
| 20260507101259 | 43 | 218 | 0.0 | 3.0 | 0.00 | 0.00 | 0.00 | 82 | 1016.7 |
| 20260507100759 | 43 | 218 | 2.0 | 3.0 | 0.00 | 0.00 | 0.00 | 82 | 1016.7 |
| 20260507100258 | 43 | 218 | 0.0 | 2.0 | 0.00 | 0.00 | 0.00 | 82 | 1016.7 |
| 20260507095758 | 43 | 219 | 0.0 | 1.0 | 0.00 | 0.00 | 0.00 | 82 | 1016.7 |
| 20260507095257 | 43 | 219 | 0.0 | 3.0 | 0.00 | 0.00 | 0.00 | 82 | 1016.7 |
| 20260507094757 | 43 | 219 | 0.0 | 3.0 | 0.00 | 0.00 | 0.00 | 82 | 1016.7 |
| 20260507094257 | 43 | 248 | 0.0 | 2.0 | 0.00 | 0.00 | 0.00 | 82 | 1016.7 |
| 20260507093756 | 43 | 250 | 0.0 | 3.0 | 0.00 | 0.00 | 0.00 | 81 | 1016.8 |
| 20260507093256 | 43 | 257 | 1.0 | 3.0 | 0.00 | 0.00 | 0.00 | 81 | 1016.9 |
| 20260507092755 | 43 | 303 | 0.0 | 2.0 | 0.00 | 0.00 | 0.00 | 81 | 1016.9 |
| 20260507092255 | 43 | 306 | 1.0 | 2.0 | 0.00 | 0.00 | 0.00 | 81 | 1016.8 |
| 20260507091754 | 43 | 316 | 0.0 | 0.0 | 0.00 | 0.00 | 0.00 | 81 | 1016.9 |
| 20260507091254 | 43 | 317 | 0.0 | 2.0 | 0.00 | 0.00 | 0.00 | 81 | 1016.9 |
| 20260507090732 | 43 | 317 | 1.0 | 2.0 | 0.00 | 0.00 | 0.00 | 81 | 1016.9 |
| 20260507090211 | 43 | 318 | 0.0 | 0.0 | 0.00 | 0.00 | 0.00 | 81 | 1017.0 |
| 20260507085710 | 43 | 319 | 0.0 | 0.0 | 0.00 | 0.00 | 0.00 | 81 | 1016.9 |
| 20260507085210 | 43 | 319 | 0.0 | 0.0 | 0.00 | 0.00 | 0.00 | 80 | 1017.1 |
| 20260507084709 | 43 | 319 | 0.0 | 0.0 | 0.00 | 0.00 | 0.00 | 80 | 1017.1 |
| 20260507084209 | 43 | 319 | 0.0 | 0.0 | 0.00 | 0.00 | 0.00 | 80 | 1017.1 |
| 20260507083708 | 43 | 319 | 0.0 | 0.0 | 0.00 | 0.00 | 0.00 | 80 | 1017.1 |
| 20260507083147 | 44 | 319 | 0.0 | 0.0 | 0.00 | 0.00 | 0.00 | 80 | 1017.1 |
| 20260507082646 | 44 | 319 | 0.0 | 0.0 | 0.00 | 0.00 | 0.00 | 80 | 1017.1 |
| 20260507082146 | 44 | 319 | 0.0 | 0.0 | 0.00 | 0.00 | 0.00 | 80 | 1017.1 |
| 20260507081645 | 44 | 319 | 0.0 | 0.0 | 0.00 | 0.00 | 0.00 | 79 | 1017.1 |
| 20260507081145 | 44 | 319 | 0.0 | 0.0 | 0.00 | 0.00 | 0.00 | 79 | 1017.1 |
| 20260507080644 | 44 | 319 | 0.0 | 0.0 | 0.00 | 0.00 | 0.00 | 79 | 1017.1 |
| 20260507080144 | 45 | 319 | 0.0 | 0.0 | 0.00 | 0.00 | 0.00 | 78 | 1017.1 |
| 20260507075622 | 45 | 319 | 0.0 | 0.0 | 0.00 | 0.00 | 0.00 | 78 | 1017.1 |
| 20260507075121 | 45 | 319 | 0.0 | 0.0 | 0.00 | 0.00 | 0.00 | 78 | 1017.1 |
| 20260507074621 | 45 | 319 | 0.0 | 0.0 | 0.00 | 0.00 | 0.00 | 78 | 1017.1 |
| 20260507074120 | 45 | 319 | 0.0 | 0.0 | 0.00 | 0.00 | 0.00 | 77 | 1017.0 |
| 20260507073620 | 45 | 319 | 0.0 | 0.0 | 0.00 | 0.00 | 0.00 | 77 | 1017.1 |
| 20260507073119 | 45 | 319 | 0.0 | 0.0 | 0.00 | 0.00 | 0.00 | 77 | 1017.2 |
| 20260507072619 | 45 | 319 | 0.0 | 0.0 | 0.00 | 0.00 | 0.00 | 77 | 1017.3 |
| 20260507072118 | 45 | 319 | 0.0 | 0.0 | 0.00 | 0.00 | 0.00 | 77 | 1017.3 |
| 20260507071618 | 45 | 319 | 0.0 | 0.0 | 0.00 | 0.00 | 0.00 | 77 | 1017.5 |
| 20260507071116 | 45 | 319 | 0.0 | 0.0 | 0.00 | 0.00 | 0.00 | 77 | 1017.5 |
| 20260507070616 | 45 | 319 | 0.0 | 0.0 | 0.00 | 0.00 | 0.00 | 77 | 1017.6 |
| 20260507070115 | 45 | 319 | 0.0 | 0.0 | 0.00 | 0.00 | 0.00 | 77 | 1017.7 |
| 20260507065615 | 45 | 319 | 0.0 | 0.0 | 0.00 | 0.00 | 0.00 | 77 | 1017.7 |
| 20260507065115 | 45 | 319 | 0.0 | 0.0 | 0.00 | 0.00 | 0.00 | 77 | 1017.7 |
| 20260507064614 | 45 | 319 | 0.0 | 0.0 | 0.00 | 0.00 | 0.00 | 77 | 1017.7 |
| 20260507064052 | 45 | 327 | 0.0 | 0.0 | 0.00 | 0.00 | 0.00 | 78 | 1017.7 |
| 20260507063531 | 45 | 329 | 0.0 | 0.0 | 0.00 | 0.00 | 0.00 | 78 | 1017.8 |
| 20260507063030 | 45 | 340 | 0.0 | 0.0 | 0.00 | 0.00 | 0.00 | 79 | 1017.9 |
| 20260507062530 | 45 | 340 | 0.0 | 0.0 | 0.00 | 0.00 | 0.00 | 79 | 1017.8 |
| 20260507062030 | 45 | 340 | 0.0 | 2.0 | 0.00 | 0.00 | 0.00 | 80 | 1017.9 |
| 20260507061508 | 45 | 341 | 0.0 | 2.0 | 0.00 | 0.00 | 0.00 | 81 | 1017.9 |
| 20260507060947 | 45 | 341 | 0.0 | 0.0 | 0.00 | 0.00 | 0.00 | 81 | 1018.0 |
| 20260507060446 | 45 | 341 | 0.0 | 0.0 | 0.00 | 0.00 | 0.00 | 82 | 1017.9 |
| 20260507055946 | 45 | 341 | 0.0 | 0.0 | 0.00 | 0.00 | 0.00 | 82 | 1017.9 |
| 20260507055445 | 45 | 341 | 0.0 | 0.0 | 0.00 | 0.00 | 0.00 | 82 | 1017.9 |
| 20260507054945 | 45 | 341 | 0.0 | 0.0 | 0.00 | 0.00 | 0.00 | 82 | 1017.8 |
| 20260507054444 | 45 | 341 | 0.0 | 0.0 | 0.00 | 0.00 | 0.00 | 83 | 1017.8 |
| 20260507053943 | 45 | 341 | 0.0 | 0.0 | 0.00 | 0.00 | 0.00 | 83 | 1017.8 |
| 20260507053443 | 45 | 341 | 0.0 | 0.0 | 0.00 | 0.00 | 0.00 | 84 | 1017.8 |
| 20260507052943 | 45 | 341 | 0.0 | 0.0 | 0.00 | 0.00 | 0.00 | 84 | 1017.8 |
| 20260507052421 | 45 | 341 | 0.0 | 0.0 | 0.00 | 0.00 | 0.00 | 85 | 1017.8 |
| 20260507051921 | 45 | 341 | 0.0 | 0.0 | 0.00 | 0.00 | 0.00 | 85 | 1017.8 |
| 20260507051420 | 44 | 341 | 0.0 | 0.0 | 0.00 | 0.00 | 0.00 | 85 | 1017.8 |
| 20260507050920 | 45 | 341 | 0.0 | 0.0 | 0.00 | 0.00 | 0.00 | 85 | 1017.8 |
| 20260507050419 | 45 | 341 | 0.0 | 0.0 | 0.00 | 0.00 | 0.00 | 85 | 1017.8 |
| 20260507045919 | 45 | 341 | 0.0 | 0.0 | 0.00 | 0.00 | 0.00 | 85 | 1017.8 |
| 20260507045419 | 45 | 341 | 0.0 | 0.0 | 0.00 | 0.00 | 0.00 | 85 | 1017.8 |
| 20260507044918 | 45 | 341 | 0.0 | 0.0 | 0.00 | 0.00 | 0.00 | 85 | 1017.9 |
| 20260507044418 | 45 | 341 | 0.0 | 0.0 | 0.00 | 0.00 | 0.00 | 84 | 1017.9 |
| 20260507043918 | 44 | 341 | 0.0 | 0.0 | 0.00 | 0.00 | 0.00 | 84 | 1017.9 |
| 20260507043417 | 45 | 341 | 0.0 | 0.0 | 0.00 | 0.00 | 0.00 | 84 | 1017.9 |
| 20260507042917 | 45 | 341 | 0.0 | 0.0 | 0.00 | 0.00 | 0.00 | 84 | 1017.9 |
| 20260507042417 | 45 | 341 | 0.0 | 0.0 | 0.00 | 0.00 | 0.00 | 83 | 1017.9 |
| 20260507041916 | 45 | 341 | 0.0 | 0.0 | 0.00 | 0.00 | 0.00 | 82 | 1017.8 |
| 20260507041416 | 45 | 341 | 0.0 | 0.0 | 0.00 | 0.00 | 0.00 | 82 | 1017.8 |
| 20260507040915 | 45 | 341 | 0.0 | 0.0 | 0.00 | 0.00 | 0.00 | 82 | 1018.0 |
| 20260507040415 | 45 | 341 | 0.0 | 0.0 | 0.00 | 0.00 | 0.00 | 81 | 1018.0 |
| 20260507035915 | 45 | 341 | 0.0 | 0.0 | 0.00 | 0.00 | 0.00 | 80 | 1018.0 |
| 20260507035414 | 45 | 341 | 0.0 | 0.0 | 0.00 | 0.00 | 0.00 | 80 | 1018.1 |
| 20260507034913 | 45 | 341 | 0.0 | 0.0 | 0.00 | 0.00 | 0.00 | 79 | 1018.1 |
| 20260507034413 | 45 | 341 | 0.0 | 0.0 | 0.00 | 0.00 | 0.00 | 78 | 1018.0 |
| 20260507033911 | 45 | 341 | 0.0 | 0.0 | 0.00 | 0.00 | 0.00 | 77 | 1018.2 |
| 20260507033411 | 45 | 341 | 0.0 | 0.0 | 0.00 | 0.00 | 0.00 | 77 | 1018.2 |
| 20260507032911 | 46 | 341 | 0.0 | 0.0 | 0.00 | 0.00 | 0.00 | 77 | 1018.1 |
| 20260507032410 | 46 | 341 | 0.0 | 0.0 | 0.00 | 0.00 | 0.00 | 76 | 1018.0 |
| 20260507031910 | 46 | 341 | 0.0 | 0.0 | 0.00 | 0.00 | 0.00 | 77 | 1018.0 |
| 20260507031409 | 47 | 341 | 0.0 | 0.0 | 0.00 | 0.00 | 0.00 | 76 | 1017.8 |
| 20260507030909 | 47 | 341 | 0.0 | 0.0 | 0.00 | 0.00 | 0.00 | 75 | 1018.0 |
| 20260507030408 | 47 | 341 | 0.0 | 0.0 | 0.00 | 0.00 | 0.00 | 74 | 1017.9 |
| 20260507025908 | 47 | 341 | 0.0 | 0.0 | 0.00 | 0.00 | 0.00 | 73 | 1017.9 |
| 20260507025407 | 48 | 341 | 0.0 | 0.0 | 0.00 | 0.00 | 0.00 | 73 | 1017.9 |
| 20260507024907 | 48 | 341 | 0.0 | 0.0 | 0.00 | 0.00 | 0.00 | 73 | 1017.9 |
| 20260507024406 | 48 | 341 | 0.0 | 1.0 | 0.00 | 0.00 | 0.00 | 71 | 1017.9 |
| 20260507023906 | 49 | 341 | 0.0 | 2.0 | 0.00 | 0.00 | 0.00 | 70 | 1017.7 |
| 20260507023344 | 49 | 341 | 1.0 | 3.0 | 0.00 | 0.00 | 0.00 | 69 | 1017.7 |
| 20260507022844 | 50 | 341 | 1.0 | 3.0 | 0.00 | 0.00 | 0.00 | 68 | 1017.7 |
| 20260507022343 | 50 | 340 | 1.0 | 2.0 | 0.00 | 0.00 | 0.00 | 66 | 1017.6 |
| 20260507021842 | 51 | 341 | 0.0 | 0.0 | 0.00 | 0.00 | 0.00 | 64 | 1017.6 |
| 20260507021321 | 51 | 340 | 0.0 | 0.0 | 0.00 | 0.00 | 0.00 | 62 | 1017.6 |
| 20260507020820 | 52 | 341 | 0.0 | 0.0 | 0.00 | 0.00 | 0.00 | 60 | 1017.4 |
| 20260507020320 | 52 | 340 | 0.0 | 0.0 | 0.00 | 0.00 | 0.00 | 59 | 1017.5 |
| 20260507015820 | 53 | 341 | 0.0 | 0.0 | 0.00 | 0.00 | 0.00 | 57 | 1017.5 |
| 20260507015319 | 54 | 341 | 0.0 | 0.0 | 0.00 | 0.00 | 0.00 | 55 | 1017.4 |
| 20260507014758 | 54 | 340 | 0.0 | 0.0 | 0.00 | 0.00 | 0.00 | 54 | 1017.4 |
| 20260507014236 | 55 | 340 | 0.0 | 0.0 | 0.00 | 0.00 | 0.00 | 53 | 1017.3 |
| 20260507013736 | 56 | 341 | 0.0 | 0.0 | 0.00 | 0.00 | 0.00 | 53 | 1017.3 |
| 20260507013214 | 56 | 341 | 0.0 | 0.0 | 0.00 | 0.00 | 0.00 | 51 | 1017.4 |
| 20260507012714 | 57 | 341 | 0.0 | 0.0 | 0.00 | 0.00 | 0.00 | 50 | 1017.3 |
| 20260507012213 | 57 | 340 | 0.0 | 0.0 | 0.00 | 0.00 | 0.00 | 50 | 1017.3 |
| 20260507011712 | 57 | 341 | 0.0 | 2.0 | 0.00 | 0.00 | 0.00 | 50 | 1017.4 |
| 20260507011151 | 58 | 340 | 0.0 | 2.0 | 0.00 | 0.00 | 0.00 | 46 | 1017.2 |
| 20260507010650 | 58 | 340 | 1.0 | 3.0 | 0.00 | 0.00 | 0.00 | 46 | 1017.1 |
| 20260507010149 | 58 | 340 | 2.0 | 4.0 | 0.00 | 0.00 | 0.00 | 45 | 1017.3 |
| 20260507005628 | 58 | 340 | 3.0 | 4.0 | 0.00 | 0.00 | 0.00 | 44 | 1017.4 |
| 20260507005128 | 59 | 340 | 3.0 | 4.0 | 0.00 | 0.00 | 0.00 | 45 | 1017.5 |
| 20260507004628 | 59 | 340 | 3.0 | 8.0 | 0.00 | 0.00 | 0.00 | 44 | 1017.5 |
| 20260507004127 | 59 | 340 | 3.0 | 8.0 | 0.00 | 0.00 | 0.00 | 43 | 1017.5 |
| 20260507003627 | 59 | 343 | 4.0 | 8.0 | 0.00 | 0.00 | 0.00 | 42 | 1017.1 |
| 20260507003126 | 59 | 336 | 3.0 | 8.0 | 0.00 | 0.00 | 0.00 | 41 | 1017.2 |
| 20260507002626 | 59 | 342 | 3.0 | 8.0 | 0.00 | 0.00 | 0.00 | 43 | 1017.1 |
| 20260507002104 | 59 | 323 | 3.0 | 9.0 | 0.00 | 0.00 | 0.00 | 40 | 1017.2 |
| 20260507001603 | 59 | 355 | 7.0 | 12.0 | 0.00 | 0.00 | 0.00 | 41 | 1017.1 |
| 20260507001103 | 59 | 340 | 6.0 | 12.0 | 0.00 | 0.00 | 0.00 | 39 | 1017.1 |
| 20260507000602 | 59 | 338 | 4.0 | 14.0 | 0.00 | 0.00 | 0.00 | 43 | 1017.1 |
| 20260507000101 | 60 | 355 | 6.0 | 14.0 | 0.00 | 0.00 | 0.00 | 40 | 1017.1 |
| 20260506235601 | 60 | 355 | 5.0 | 12.0 | 0.00 | 0.00 | 0.00 | 41 | 1017.2 |
| 20260506235100 | 60 | 333 | 2.0 | 13.0 | 0.00 | 0.00 | 0.00 | 39 | 1017.2 |
| 20260506234600 | 60 | 326 | 4.0 | 13.0 | 0.00 | 0.00 | 0.00 | 41 | 1017.2 |
| 20260506234059 | 60 | 338 | 7.0 | 10.0 | 0.00 | 0.00 | 0.00 | 39 | 1017.3 |
| 20260506233559 | 60 | 331 | 5.0 | 10.0 | 0.00 | 0.00 | 0.00 | 39 | 1017.3 |
| 20260506233057 | 60 | 331 | 2.0 | 15.0 | 0.00 | 0.00 | 0.00 | 39 | 1017.2 |
| 20260506232557 | 60 | 19 | 9.0 | 15.0 | 0.00 | 0.00 | 0.00 | 38 | 1017.2 |
| 20260506232056 | 60 | 360 | 7.0 | 12.0 | 0.00 | 0.00 | 0.00 | 40 | 1017.3 |
| 20260506231556 | 61 | 337 | 6.0 | 13.0 | 0.00 | 0.00 | 0.00 | 40 | 1017.3 |
| 20260506231056 | 61 | 321 | 2.0 | 13.0 | 0.00 | 0.00 | 0.00 | 40 | 1017.3 |
| 20260506230534 | 61 | 331 | 5.0 | 10.0 | 0.00 | 0.00 | 0.00 | 40 | 1017.3 |
| 20260506230034 | 60 | 333 | 5.0 | 11.0 | 0.00 | 0.00 | 0.00 | 39 | 1017.4 |
| 20260506225533 | 61 | 346 | 7.0 | 14.0 | 0.00 | 0.00 | 0.00 | 38 | 1017.4 |
| 20260506225012 | 60 | 345 | 10.0 | 14.0 | 0.00 | 0.00 | 0.00 | 39 | 1017.4 |
| 20260506224512 | 60 | 346 | 5.0 | 13.0 | 0.00 | 0.00 | 0.00 | 40 | 1017.3 |
| 20260506224011 | 60 | 62 | 4.0 | 13.0 | 0.00 | 0.00 | 0.00 | 41 | 1017.4 |
| 20260506223511 | 60 | 5 | 4.0 | 8.0 | 0.00 | 0.00 | 0.00 | 39 | 1017.3 |
| 20260506223010 | 60 | 355 | 6.0 | 10.0 | 0.00 | 0.00 | 0.00 | 39 | 1017.5 |
| 20260506222510 | 60 | 350 | 7.0 | 10.0 | 0.00 | 0.00 | 0.00 | 39 | 1017.4 |
| 20260506222009 | 60 | 313 | 3.0 | 10.0 | 0.00 | 0.00 | 0.00 | 38 | 1017.5 |
| 20260506221509 | 60 | 329 | 1.0 | 10.0 | 0.00 | 0.00 | 0.00 | 38 | 1017.6 |
| 20260506221008 | 60 | 315 | 6.0 | 10.0 | 0.00 | 0.00 | 0.00 | 39 | 1017.6 |
| 20260506220508 | 60 | 319 | 3.0 | 13.0 | 0.00 | 0.00 | 0.00 | 41 | 1017.6 |
| 20260506220008 | 60 | 331 | 5.0 | 16.0 | 0.00 | 0.00 | 0.00 | 41 | 1017.6 |
| 20260506215446 | 60 | 321 | 2.0 | 16.0 | 0.00 | 0.00 | 0.00 | 39 | 1017.6 |
| 20260506214946 | 60 | 355 | 8.0 | 16.0 | 0.00 | 0.00 | 0.00 | 40 | 1017.6 |
| 20260506214446 | 60 | 323 | 3.0 | 16.0 | 0.00 | 0.00 | 0.00 | 40 | 1017.7 |
| 20260506213945 | 60 | 320 | 4.0 | 12.0 | 0.00 | 0.00 | 0.00 | 41 | 1017.5 |
| 20260506213445 | 60 | 321 | 8.0 | 13.0 | 0.00 | 0.00 | 0.00 | 41 | 1017.7 |
| 20260506212923 | 60 | 355 | 4.0 | 13.0 | 0.00 | 0.00 | 0.00 | 39 | 1017.8 |
| 20260506212423 | 60 | 345 | 6.0 | 14.0 | 0.00 | 0.00 | 0.00 | 39 | 1017.8 |
| 20260506211922 | 60 | 329 | 8.0 | 14.0 | 0.00 | 0.00 | 0.00 | 41 | 1017.9 |
| 20260506211422 | 59 | 335 | 5.0 | 15.0 | 0.00 | 0.00 | 0.00 | 41 | 1017.8 |
| 20260506210922 | 59 | 9 | 7.0 | 18.0 | 0.00 | 0.00 | 0.00 | 41 | 1018.1 |
| 20260506210421 | 60 | 351 | 13.0 | 18.0 | 0.00 | 0.00 | 0.00 | 41 | 1018.2 |
| 20260506205921 | 59 | 340 | 6.0 | 15.0 | 0.00 | 0.00 | 0.00 | 40 | 1018.3 |
| 20260506205421 | 60 | 355 | 12.0 | 15.0 | 0.00 | 0.00 | 0.00 | 41 | 1018.4 |
| 20260506204920 | 59 | 329 | 3.0 | 15.0 | 0.00 | 0.00 | 0.00 | 40 | 1018.4 |
| 20260506204359 | 60 | 313 | 7.0 | 15.0 | 0.00 | 0.00 | 0.00 | 41 | 1018.3 |
| 20260506203858 | 59 | 275 | 2.0 | 9.0 | 0.00 | 0.00 | 0.00 | 40 | 1018.6 |
| 20260506203357 | 59 | 317 | 5.0 | 11.0 | 0.00 | 0.00 | 0.00 | 42 | 1018.5 |
| 20260506202857 | 59 | 333 | 6.0 | 11.0 | 0.00 | 0.00 | 0.00 | 43 | 1018.7 |
| 20260506202356 | 59 | 323 | 1.0 | 12.0 | 0.00 | 0.00 | 0.00 | 41 | 1018.8 |
| 20260506201855 | 59 | 349 | 9.0 | 13.0 | 0.00 | 0.00 | 0.00 | 43 | 1018.7 |
| 20260506201355 | 59 | 329 | 7.0 | 15.0 | 0.00 | 0.00 | 0.00 | 42 | 1018.7 |
| 20260506200854 | 59 | 331 | 12.0 | 16.0 | 0.00 | 0.00 | 0.00 | 43 | 1018.8 |
| 20260506200354 | 59 | 331 | 10.0 | 16.0 | 0.00 | 0.00 | 0.00 | 44 | 1018.8 |
| 20260506195853 | 58 | 322 | 3.0 | 6.0 | 0.00 | 0.00 | 0.00 | 44 | 1018.8 |
| 20260506195352 | 58 | 17 | 1.0 | 6.0 | 0.00 | 0.00 | 0.00 | 40 | 1018.7 |
| 20260506194852 | 58 | 301 | 2.0 | 15.0 | 0.00 | 0.00 | 0.00 | 43 | 1018.8 |
| 20260506194351 | 58 | 306 | 2.0 | 15.0 | 0.00 | 0.00 | 0.00 | 40 | 1018.8 |
| 20260506193851 | 58 | 323 | 4.0 | 10.0 | 0.00 | 0.00 | 0.00 | 42 | 1018.8 |
| 20260506193329 | 58 | 325 | 4.0 | 13.0 | 0.00 | 0.00 | 0.00 | 43 | 1018.9 |
| 20260506192829 | 58 | 338 | 9.0 | 13.0 | 0.00 | 0.00 | 0.00 | 42 | 1018.9 |
| 20260506192308 | 57 | 342 | 5.0 | 14.0 | 0.00 | 0.00 | 0.00 | 44 | 1018.9 |
| 20260506191807 | 57 | 329 | 9.0 | 14.0 | 0.00 | 0.00 | 0.00 | 42 | 1019.0 |
| 20260506191306 | 57 | 11 | 7.0 | 16.0 | 0.00 | 0.00 | 0.00 | 42 | 1018.9 |
| 20260506190806 | 57 | 355 | 9.0 | 15.0 | 0.00 | 0.00 | 0.00 | 44 | 1018.9 |
| 20260506190305 | 57 | 313 | 4.0 | 15.0 | 0.00 | 0.00 | 0.00 | 45 | 1018.9 |
| 20260506185805 | 56 | 31 | 10.0 | 15.0 | 0.00 | 0.00 | 0.00 | 42 | 1018.9 |
| 20260506185306 | 56 | 332 | 6.0 | 15.0 | 0.00 | 0.00 | 0.00 | 45 | 1019.1 |
| 20260506184804 | 56 | 337 | 5.0 | 13.0 | 0.00 | 0.00 | 0.00 | 40 | 1019.0 |
| 20260506184303 | 57 | 355 | 9.0 | 13.0 | 0.00 | 0.00 | 0.00 | 45 | 1019.1 |
| 20260506183741 | 56 | 322 | 5.0 | 14.0 | 0.00 | 0.00 | 0.00 | 47 | 1019.2 |
| 20260506183241 | 56 | 325 | 8.0 | 14.0 | 0.00 | 0.00 | 0.00 | 47 | 1019.1 |
| 20260506182741 | 56 | 30 | 4.0 | 12.0 | 0.00 | 0.00 | 0.00 | 45 | 1019.3 |
| 20260506182240 | 56 | 311 | 3.0 | 12.0 | 0.00 | 0.00 | 0.00 | 43 | 1019.4 |
| 20260506181740 | 56 | 325 | 7.0 | 14.0 | 0.00 | 0.00 | 0.00 | 45 | 1019.5 |
| 20260506181239 | 56 | 332 | 5.0 | 14.0 | 0.00 | 0.00 | 0.00 | 43 | 1019.6 |
| 20260506180739 | 56 | 318 | 2.0 | 6.0 | 0.00 | 0.00 | 0.00 | 43 | 1019.6 |
| 20260506180217 | 56 | 315 | 2.0 | 10.0 | 0.00 | 0.00 | 0.00 | 43 | 1019.6 |
| 20260506175717 | 56 | 321 | 6.0 | 13.0 | 0.00 | 0.00 | 0.00 | 44 | 1019.7 |
| 20260506175155 | 56 | 350 | 5.0 | 17.0 | 0.00 | 0.00 | 0.00 | 46 | 1019.6 |
| 20260506174655 | 55 | 333 | 10.0 | 17.0 | 0.00 | 0.00 | 0.00 | 45 | 1019.7 |
| 20260506174155 | 55 | 311 | 4.0 | 10.0 | 0.00 | 0.00 | 0.00 | 44 | 1019.6 |
| 20260506173654 | 55 | 349 | 6.0 | 13.0 | 0.00 | 0.00 | 0.00 | 45 | 1019.7 |
| 20260506173154 | 55 | 333 | 7.0 | 13.0 | 0.00 | 0.00 | 0.00 | 46 | 1019.6 |
| 20260506172654 | 55 | 315 | 7.0 | 13.0 | 0.00 | 0.00 | 0.00 | 47 | 1019.6 |
| 20260506172153 | 55 | 332 | 2.0 | 13.0 | 0.00 | 0.00 | 0.00 | 45 | 1019.6 |
| 20260506171653 | 55 | 348 | 9.0 | 15.0 | 0.00 | 0.00 | 0.00 | 45 | 1019.8 |
| 20260506171152 | 55 | 335 | 12.0 | 15.0 | 0.00 | 0.00 | 0.00 | 47 | 1019.7 |
| 20260506170652 | 55 | 325 | 5.0 | 11.0 | 0.00 | 0.00 | 0.00 | 46 | 1019.7 |
| 20260506170151 | 55 | 342 | 5.0 | 15.0 | 0.00 | 0.00 | 0.00 | 47 | 1019.9 |